Regional Weather Roundup
Issued by NWS San Diego, CA

Home | Current Version | Previous Version | Text Only | Print | Product List | Glossary On
Versions: 1 2 3 4 5 6 7 8 9 10 11 12 13 14 15 16 17 18 19 20 21 22 23 24 25 26 27 28 29 30 31 32 33 34 35 36 37 38 39 40 41 42 43 44 45 46 47 48 49 50
000
ASUS46 KSGX 012303
RWRSGX

SAN DIEGO HOURLY WEATHER ROUNDUP
NATIONAL WEATHER SERVICE SAN DIEGO CA
400 PM PDT WED OCT 01 2014

NOTE: "FAIR" INDICATES FEW OR NO CLOUDS BELOW 12,000 FEET WITH NO
SIGNIFICANT WEATHER AND/OR OBSTRUCTIONS TO VISIBILITY.

CAZ042-043-060-061-PZZ750-775-020000-

GREATER SAN DIEGO AREA

CITY           SKY/WX    TMP DP  RH WIND       PRES   REMARKS
LINDBERGH FLD  MOSUNNY   74  62  66 W8        29.80R
POINT LOMA       N/A     73  61  66 W8          N/A
NATIONAL CITY    N/A     73  65  74 S2        29.79S
CHULA VISTA      N/A     73  66  77 W2        29.73R
IMPERIAL BEACH MOSUNNY   72  63  73 W9        29.79S
BROWN FIELD    SUNNY     74  61  63 NW7       29.79R
MIRAMAR MCAS   MOSUNNY   76  60  57 W8        29.79R
MONTGOMERY FLD SUNNY     74  62  66 SW10      29.79S

$$

NORTH SAN DIEGO COUNTY

CITY           SKY/WX    TMP DP  RH WIND       PRES   REMARKS
CAMP PENDLETON SUNNY     75  60  59 SW12      29.77R
OCEANSIDE AP   SUNNY     75  63  66 W12       29.77S
OCEANSIDE HBR    N/A     72  67  84 SW10      29.81R
VISTA            N/A     77  64  63 SW3       29.76R
CARLSBAD       SUNNY     73  62  68 SW8       29.78S
DEL MAR          N/A     73  66  77 W2        29.81R
FALLBROOK        N/A     78  63  59 S8        29.77S
ESCONDIDO        N/A     79  63  57 SW10      29.79R
SAN MARCOS       N/A     75  64  67 W3        29.76R
POWAY            N/A     79  63  57 S7        29.78R

$$

EAST SAN DIEGO COUNTY

CITY           SKY/WX    TMP DP  RH WIND       PRES   REMARKS
RAMONA         SUNNY     79  58  48 W10       29.80R
SANTEE LAKES     N/A     79  64  60 SW5       29.78
LA MESA          N/A     77  66  68 NW5       29.72R
JAMUL            N/A     78  63  58 CALM      29.77R
MT. LAGUNA OBS   N/A     64  32  31 NE5       29.62R
CAMPO            N/A     84  34  16 E15       29.81R

$$

ORANGE COUNTY AND THE LOS ANGELES BASIN

CITY           SKY/WX    TMP DP  RH WIND       PRES   REMARKS
JOHN WAYNE AP  SUNNY     79  61  53 SW9       29.77S
LAGUNA BEACH     N/A     75  66  73 CALM      29.74S
LAKE FOREST FR   N/A     84  58  41 CALM      29.66S
SANTA ANA        N/A     82  65  55 S1        29.72S
HUNTINGTON BCH   N/A     76  66  71 SW2       29.79F
LOS ALAMITOS   SUNNY     78  63  59 SW10      29.77S
FULLERTON      SUNNY     81  59  47 S9        29.75S
LONG BEACH     SUNNY     77  61  57 S7        29.77S
L.A. AP        MOSUNNY   71  62  73 W14       29.79R
L.A. DOWNTOWN  SUNNY     77  61  57 MISG      29.77S

$$

THE INLAND EMPIRE

CITY           SKY/WX    TMP DP  RH WIND       PRES   REMARKS
CORONA         SUNNY     85  59  41 W12       29.76S
CHINO          SUNNY     88  57  34 W12       29.76F
ONTARIO        SUNNY     88  52  29 W9        29.76S
RIVERSIDE AP   SUNNY     88  55  32 W12       29.76S
RIV CYN CREST    N/A     87  61  41 NW7       29.73S
MORENO VALLEY    N/A     91  52  26 W6        28.95S
MARCH ARB      SUNNY     88  50  27 W10       29.78S
HORSETHIEF CYN   N/A     89  42  18 W7        29.77S
PERRIS           N/A     88  47  23 NW5       29.73F
MENIFEE          N/A     93  46  19 E2        29.81F
HEMET EAST       N/A     88  39  17 SW5       29.73F
FRENCH VALLEY  FAIR      84  57  39 SW12      29.78R
TEMECULA         N/A     83  59  43 SW3       29.70S

$$

SAN BERNARDINO AND RIVERSIDE COUNTY MOUNTAINS

CITY           SKY/WX    TMP DP  RH WIND       PRES   REMARKS
BIG BEAR AP    SUNNY     61  28  29 E12G18    30.13R
ANGELUS OAKS     N/A     72  40  32 CALM      29.74R
PINE COVE        N/A     71  37  28 CALM      29.73S

$$

SOUTHERN DESERT INCLUDING THE COACHELLA VALLEY

CITY           SKY/WX    TMP DP  RH WIND       PRES   REMARKS
PALM SPRINGS   SUNNY     97  33  10 VRB5      29.74F
THOUSAND PALMS   N/A     96  39  14 SW5       29.69F
PALM DESERT      N/A    100  43  14 CALM      31.34S HX  95
THERMAL        SUNNY     97  37  12 W3        29.68S
BLYTHE         SUNNY     94  41  16 MISG      29.74R
IMPERIAL AP    SUNNY     95  33  11 NE6       29.70S
EL CENTRO NAS  SUNNY     95  36  12 E8        29.71R
YUMA AZ        MOSUNNY   95  42  16 CALM      29.71S
MEXICALI       SUNNY     95  32  11 W12       29.72

$$

UPPER DESERT

CITY           SKY/WX    TMP DP  RH WIND       PRES   REMARKS
VICTORVILLE AP SUNNY     84  30  14 NE10G21   29.92R
HESPERIA         N/A     82  36  19 SE8       29.93R
APPLE VALLEY     N/A     83  34  16 NE2G18    29.97R
PALMDALE       SUNNY     86  32  14 E20       29.88F
LANCASTER      SUNNY     86  32  14 NE18      29.88S
EDWARDS AFB    SUNNY     87  31  13 E18       29.87S
DAGGETT        SUNNY     88  31  13 NE10      29.86F
29 PALMS N     SUNNY     87  35  15 NW7       29.92S
NEEDLES        SUNNY     93  35  13 NE20      29.79R

$$

REGIONAL REPORTS

CITY           SKY/WX    TMP DP  RH WIND       PRES   REMARKS
SANTA BARBARA  SUNNY     74  62  66 W8        29.79S
SANDBERG       SUNNY     79  29  16 E16G26    30.01R
MT. WILSON       N/A     77  48  36 SW5         N/A
LAS VEGAS NV   MOSUNNY   82  25  12 VRB7      29.87S
PHOENIX AZ     MOSUNNY   90  39  16 SW9       29.75F
TIJUANA        SUNNY     73  57  56 W12       29.81R
ENSENADA NW      N/A     71  32  23 W10       29.77R

$$

OFFSHORE ISLANDS

CITY           SKY/WX    TMP DP  RH WIND       PRES   REMARKS
CATALINA ARPT  SUNNY     72  59  63 W6        29.83S
SAN NICOLAS IS SUNNY    N/A N/A N/A N3        29.80S

$$

MARINE AND OFFSHORE BUOY REPORTS

STATION/POSITION SKY/WX   TEMP    WIND        PRES    SWELL
                          AIR SEA DIR/SP/G            HT/PER/DIR
                          (F)     (DEG/KT/KT) (MB)    (FT/S/D)
TANNER BANKS               67 69  280/  4/  6 1008.6R   8/300/11
S CLEMENTE BASIN           69 73  260/  8/ 10 1008.6R   5/290/10
SO. S. ROSA ISLA           65 65  340/  4/  6 1008.6F   7/11
W. S. BARBARA CH           65 62  260/  4/  6 1008.2F   8/300/11
M. S. BARBARA CH           68 68  230/  2/  4 1009.1F
S. MONICA BASIN            66 71  250/  6/  8 1008.4F   3/220/15
LA JOLLA 1                 70 71  250/  6/  8 1008.8R
SAN DIEGO BAY                 74              1009.2R

$$



USA.gov is the U.S. government's official web portal to all federal, state and local government web resources and services.